STARLINK-5896, 55930

Orbit data source: Space-Track

STARLINK-5896, 55930 is a payload satellite owned by SpaceX/Seattle (US) in LEO that was launched on Fri, 17 Mar 2023 UTC via an FALCON 9 launch vehicle from the Air Force Western Test Range (AFWTR). Payload-class satellites include a variety of spacecraft equipped with specific instruments for various scientific and technological missions. These include communications satellites like Starlink; space stations such as the ISS; scientific satellites like the Hubble; Earth observation satellites from companies like Planet Labs, Umbra, and HawkEye 360; GPS; miniature CubeSats for education and research; and military/defense satellites.

Loading next visibility...
Identifier
55930, 2023-037S
Orbit
LEO
Country
Flag of USUS
Related business
Manufacturer
SpaceX/Seattle
Mission
Operational Commercial Communications
Bus & Motor
STARLINK, Unknown motor
Mass
305 kg wet, ~290 kg dry
Launch date (UTC)
2023-03-17 (3 years ago)
Launch vehicle
FALCON 9
Launch site
Air Force Western Test Range (AFWTR)
Object type
Payload
Rocket body
Debris
Shape & HBR
Box + 1 Pan, 10.1 m
Radar Cross Section
11.087 m², Large (>1 m²)

Expand to show TLE details & history
Last TLE update: 2 days ago

TLE from 2 days ago
0 STARLINK-5896
1 55930U 23037S   26171.04646230  .00005868  00000-0  49918-3 0  9990
2 55930  70.0008  26.3283 0002935 266.3494  93.7330 14.98327840179318
Epoch: 2026-06-20T01:06Z
TLE epoch observation values (Epoch: 2026-06-20T01:06:54.342Z)
Latitude
0.00002°
Longitude
101.33517°
Altitude
574.62 km
Speed
7.574 km/s
True Right ascension
01h 45m 18s
True Declination
0° 00' 00"
Sunlit
Object was in daylight at epoch
Visualization orbit readout
Latitude
Unknown
Longitude
Unknown
Altitude
Unknown
Speed
Unknown
Apparent Right ascension
Unknown
Apparent Declination
Unknown
Sunlit
N/A
Visualization observer readout
Local Sidereal Time
21:54:17
Azimuth
Unknown
Elevation
Unknown
Doppler factor
Unknown
Orbital elements
Apogee altitude
572.05 km
Perigee altitude
567.971 km
Semi-major axis
6,948.148 km
Eccentricity
0.00029
Inclination
70.0008°
RAAN
26.3283°
Arg. of periapsis
266.3494°
True anomaly
93.76656°
Mean anomaly
93.733°
Eccentric anomaly
93.74978°
Mean motion
3.74748 °/min
Orbital period
96.06 mins
BSTAR
0.00049918
Loading maneuver chart data...
Computing Atmospheric mass density...
Loading historical data...
Loading historical data...
Loading historical data...
Loading historical data...
Loading historical data...
Loading historical data...
Loading historical data...

Documentation

Showing up to 5 results
|